This is the latest recevied weather packets stored in our database for station/object WE0DX-1. If no packets are shown the sender has not sent any weather packets the latest 10 day(s).
| Time | Temp. | Humidity | Pressure | Rain* | Wind** | Luminosity | Snow |
|---|---|---|---|---|---|---|---|
| 1777815771 | 14.44° C | 52% | 1013.5 hPa | 0 mm | - | 235 W/m² | - |
| 1777815469 | 14.44° C | 51% | 1013.3 hPa | 0 mm | - | 196 W/m² | - |
| 1777815166 | 13.89° C | 52% | 1013.5 hPa | 0 mm | - | 107 W/m² | - |
| 1777814862 | 13.89° C | 51% | 1013.6 hPa | 0 mm | - | 53 W/m² | - |
| 1777814558 | 13.89° C | 51% | 1013.5 hPa | 0 mm | - | 61 W/m² | - |
| 1777814256 | 13.89° C | 51% | 1013.7 hPa | 0 mm | - | 71 W/m² | - |
| 1777813952 | 13.33° C | 51% | 1013.9 hPa | 0 mm | - | 68 W/m² | - |
| 1777813650 | 13.33° C | 50% | 1013.7 hPa | 0 mm | - | 56 W/m² | - |
| 1777813347 | 13.33° C | 51% | 1013.8 hPa | 0 mm | - | 119 W/m² | - |
| 1777813045 | 12.78° C | 51% | 1013.7 hPa | 0 mm | - | 45 W/m² | - |
| 1777812742 | 12.78° C | 50% | 1013.4 hPa | 0 mm | - | 39 W/m² | - |
| 1777812439 | 12.78° C | 50% | 1013.7 hPa | 0 mm | - | 36 W/m² | - |
| 1777812137 | 12.78° C | 51% | 1013.7 hPa | 0 mm | - | 37 W/m² | - |
| 1777811835 | 12.22° C | 50% | 1013.4 hPa | 0 mm | - | 37 W/m² | - |
| 1777811533 | 12.78° C | 50% | 1013.6 hPa | 0 mm | - | 32 W/m² | - |
| 1777811228 | 12.78° C | 50% | 1013.6 hPa | 0 mm | - | 39 W/m² | - |
| 1777810926 | 12.22° C | 50% | 1013.6 hPa | 0 mm | - | 43 W/m² | - |
| 1777810621 | 12.22° C | 50% | 1013.9 hPa | 0 mm | - | 37 W/m² | - |
| 1777810314 | 12.22° C | 49% | 1013.6 hPa | 0 mm | - | 31 W/m² | - |
| 1777810009 | 12.22° C | 49% | 1013.6 hPa | 0 mm | - | 28 W/m² | - |
| 1777809708 | 11.67° C | 49% | 1013.4 hPa | 0 mm | - | 24 W/m² | - |
| 1777809405 | 11.67° C | 49% | 1013.6 hPa | 0 mm | - | 20 W/m² | - |
| 1777809103 | 11.11° C | 50% | 1013.6 hPa | 0 mm | - | 16 W/m² | - |
| 1777808800 | 11.11° C | 51% | 1013.7 hPa | 0 mm | - | 12 W/m² | - |
| 1777808497 | 11.11° C | 50% | 1013.9 hPa | 0 mm | - | 10 W/m² | - |
* Rain latest hour (hover to see other rain measurements)
** Current wind speed in m/s (hover to see current wind gust speed)